| time (UTC) | temp F | wind direction | speed knots | gust knots | rain 1hr in | rain 24hr in | rain mn in | humidity % | barometer mb |
| 20260506114314 | 54 | 302 | 2.6 | 2.6 | 0.00 | 0.00 | 0.00 | 90 | 1023.9 |
| 20260506113812 | 54 | 275 | 2.6 | 2.6 | 0.00 | 0.00 | 0.00 | 90 | 1023.8 |
| 20260506113309 | 54 | 279 | 1.7 | 1.7 | 0.00 | 0.00 | 0.00 | 90 | 1023.8 |
| 20260506112806 | 53 | 263 | 3.5 | 4.3 | 0.00 | 0.00 | 0.00 | 89 | 1023.8 |
| 20260506112305 | 54 | 306 | 2.6 | 2.6 | 0.00 | 0.00 | 0.00 | 89 | 1023.7 |
| 20260506111800 | 54 | 282 | 2.6 | 4.3 | 0.00 | 0.00 | 0.00 | 90 | 1023.5 |
| 20260506111258 | 54 | 316 | 0.9 | 0.9 | 0.00 | 0.00 | 0.00 | 90 | 1023.5 |
| 20260506110755 | 54 | 283 | 2.6 | 2.6 | 0.00 | 0.00 | 0.00 | 90 | 1023.5 |
| 20260506110252 | 54 | 276 | 2.6 | 2.6 | 0.00 | 0.00 | 0.00 | 90 | 1023.3 |
| 20260506105749 | 54 | 272 | 2.6 | 2.6 | 0.00 | 0.00 | 0.00 | 89 | 1023.4 |
| 20260506105246 | 54 | 304 | 1.7 | 1.7 | 0.00 | 0.00 | 0.00 | 89 | 1023.3 |
| 20260506104743 | 54 | 294 | 1.7 | 1.7 | 0.00 | 0.00 | 0.00 | 89 | 1023.2 |
| 20260506104241 | 54 | 313 | 0.9 | 1.7 | 0.00 | 0.00 | 0.00 | 89 | 1023.3 |
| 20260506103738 | 54 | 285 | 1.7 | 1.7 | 0.00 | 0.00 | 0.00 | 89 | 1023.2 |
| 20260506103235 | 54 | 321 | 0.9 | 0.9 | 0.00 | 0.00 | 0.00 | 89 | 1023.2 |
| 20260506102733 | 54 | 286 | 1.7 | 1.7 | 0.00 | 0.00 | 0.00 | 89 | 1023.3 |
| 20260506102231 | 54 | 298 | 1.7 | 1.7 | 0.00 | 0.00 | 0.00 | 89 | 1023.2 |
| 20260506101727 | 54 | 281 | 1.7 | 2.6 | 0.00 | 0.00 | 0.00 | 89 | 1023.0 |
| 20260506101224 | 54 | 263 | 2.6 | 2.6 | 0.00 | 0.00 | 0.00 | 89 | 1023.0 |
| 20260506100722 | 54 | 270 | 2.6 | 2.6 | 0.00 | 0.00 | 0.00 | 89 | 1023.0 |
| 20260506100220 | 54 | 279 | 2.6 | 2.6 | 0.00 | 0.00 | 0.00 | 90 | 1022.9 |
| 20260506095718 | 54 | 278 | 2.6 | 2.6 | 0.00 | 0.00 | 0.00 | 89 | 1022.8 |
| 20260506095215 | 54 | 310 | 1.7 | 1.7 | 0.00 | 0.00 | 0.00 | 89 | 1023.0 |
| 20260506094712 | 54 | 312 | 1.7 | 1.7 | 0.00 | 0.00 | 0.00 | 89 | 1023.1 |
| 20260506094210 | 54 | 270 | 2.6 | 2.6 | 0.00 | 0.00 | 0.00 | 89 | 1022.9 |
| 20260506093708 | 54 | 322 | 0.9 | 1.7 | 0.00 | 0.00 | 0.00 | 89 | 1023.0 |
| 20260506093205 | 54 | 268 | 2.6 | 2.6 | 0.00 | 0.00 | 0.00 | 89 | 1023.1 |
| 20260506092703 | 54 | 313 | 0.9 | 1.7 | 0.00 | 0.00 | 0.00 | 89 | 1023.0 |
| 20260506092200 | 54 | 278 | 2.6 | 2.6 | 0.00 | 0.00 | 0.00 | 89 | 1023.0 |
| 20260506091658 | 54 | 308 | 2.6 | 2.6 | 0.00 | 0.00 | 0.00 | 89 | 1023.0 |
| 20260506091155 | 54 | 269 | 2.6 | 2.6 | 0.00 | 0.00 | 0.00 | 89 | 1022.7 |
| 20260506090653 | 54 | 281 | 1.7 | 1.7 | 0.00 | 0.00 | 0.00 | 89 | 1023.0 |
| 20260506090149 | 54 | 318 | 0.9 | 0.9 | 0.00 | 0.00 | 0.00 | 89 | 1023.1 |
| 20260506085646 | 54 | 273 | 2.6 | 4.3 | 0.00 | 0.00 | 0.00 | 89 | 1022.8 |
| 20260506085142 | 54 | 302 | 1.7 | 1.7 | 0.00 | 0.00 | 0.00 | 89 | 1022.8 |
| 20260506084639 | 54 | 271 | 2.6 | 2.6 | 0.00 | 0.00 | 0.00 | 89 | 1023.1 |
| 20260506084136 | 54 | 282 | 2.6 | 2.6 | 0.00 | 0.00 | 0.00 | 89 | 1022.9 |
| 20260506083632 | 54 | 269 | 3.5 | 4.3 | 0.00 | 0.00 | 0.00 | 89 | 1023.1 |
| 20260506083130 | 54 | 270 | 4.3 | 5.2 | 0.00 | 0.00 | 0.00 | 89 | 1022.9 |
| 20260506082627 | 54 | 302 | 3.5 | 4.3 | 0.00 | 0.00 | 0.00 | 89 | 1023.1 |
| 20260506082122 | 54 | 320 | 2.6 | 2.6 | 0.00 | 0.00 | 0.00 | 89 | 1023.0 |
| 20260506081621 | 54 | 316 | 2.6 | 4.3 | 0.00 | 0.00 | 0.00 | 89 | 1023.1 |
| 20260506081118 | 54 | 297 | 3.5 | 4.3 | 0.00 | 0.00 | 0.00 | 89 | 1023.0 |
| 20260506080616 | 54 | 290 | 0.9 | 1.7 | 0.00 | 0.00 | 0.00 | 89 | 1023.2 |
| 20260506080112 | 54 | 273 | 3.5 | 5.2 | 0.00 | 0.00 | 0.00 | 88 | 1023.1 |
| 20260506073056 | 55 | 320 | 4.3 | 4.3 | 0.00 | 0.00 | 0.00 | 88 | 1022.5 |
| 20260506072552 | 55 | 275 | 2.6 | 2.6 | 0.00 | 0.00 | 0.00 | 88 | 1022.6 |
| 20260506072051 | 55 | 262 | 2.6 | 2.6 | 0.00 | 0.00 | 0.00 | 88 | 1022.6 |
| 20260506071548 | 55 | 303 | 2.6 | 2.6 | 0.00 | 0.00 | 0.00 | 88 | 1022.4 |
| 20260506071045 | 55 | 289 | 2.6 | 2.6 | 0.00 | 0.00 | 0.00 | 87 | 1022.5 |
| 20260506070542 | 55 | 302 | 1.7 | 1.7 | 0.00 | 0.00 | 0.00 | 87 | 1022.6 |
| 20260506062017 | 55 | 272 | 3.5 | 4.3 | 0.00 | 0.00 | 0.00 | 87 | 1022.2 |
| 20260506061512 | 55 | 279 | 3.5 | 4.3 | 0.00 | 0.00 | 0.00 | 87 | 1021.9 |
| 20260506061010 | 55 | 259 | 4.3 | 4.3 | 0.00 | 0.00 | 0.00 | 87 | 1021.8 |
| 20260506060508 | 55 | 283 | 2.6 | 2.6 | 0.00 | 0.00 | 0.00 | 87 | 1021.9 |
| 20260506050937 | 55 | 272 | 3.5 | 4.3 | 0.00 | 0.00 | 0.00 | 87 | 1021.8 |
| 20260506050435 | 55 | 315 | 2.6 | 2.6 | 0.00 | 0.00 | 0.00 | 87 | 1021.5 |
| 20260506044925 | 56 | 271 | 2.6 | 2.6 | 0.00 | 0.00 | 0.00 | 87 | 1021.6 |
| 20260506044424 | 56 | 251 | 3.5 | 4.3 | 0.00 | 0.00 | 0.00 | 86 | 1021.5 |
| 20260506043920 | 56 | 317 | 3.5 | 4.3 | 0.00 | 0.00 | 0.00 | 86 | 1021.5 |
| 20260506043417 | 56 | 313 | 2.6 | 4.3 | 0.00 | 0.00 | 0.00 | 86 | 1021.4 |
| 20260506042915 | 56 | 274 | 3.5 | 5.2 | 0.00 | 0.00 | 0.00 | 86 | 1021.4 |
| 20260506042414 | 56 | 303 | 2.6 | 2.6 | 0.00 | 0.00 | 0.00 | 86 | 1021.2 |
| 20260506041912 | 56 | 273 | 2.6 | 4.3 | 0.00 | 0.00 | 0.00 | 86 | 1021.3 |
| 20260506041409 | 56 | 271 | 1.7 | 1.7 | 0.00 | 0.00 | 0.00 | 86 | 1021.1 |
| 20260506040906 | 56 | 276 | 2.6 | 4.3 | 0.00 | 0.00 | 0.00 | 86 | 1021.0 |
| 20260506040404 | 56 | 256 | 6.1 | 6.1 | 0.00 | 0.00 | 0.00 | 86 | 1020.9 |
| 20260506035859 | 56 | 322 | 1.7 | 2.6 | 0.00 | 0.00 | 0.00 | 85 | 1020.7 |
| 20260506035357 | 56 | 313 | 4.3 | 5.2 | 0.00 | 0.00 | 0.00 | 85 | 1020.8 |
| 20260506034854 | 56 | 305 | 2.6 | 4.3 | 0.00 | 0.00 | 0.00 | 85 | 1020.9 |
| 20260506034351 | 56 | 298 | 3.5 | 5.2 | 0.00 | 0.00 | 0.00 | 85 | 1021.0 |
| 20260506033848 | 56 | 275 | 4.3 | 5.2 | 0.00 | 0.00 | 0.00 | 85 | 1020.4 |
| 20260506033345 | 56 | 307 | 4.3 | 6.1 | 0.00 | 0.00 | 0.00 | 85 | 1020.4 |
| 20260506032842 | 57 | 289 | 4.3 | 5.2 | 0.00 | 0.00 | 0.00 | 84 | 1020.6 |
| 20260506032339 | 57 | 277 | 4.3 | 5.2 | 0.00 | 0.00 | 0.00 | 84 | 1020.4 |
| 20260506031836 | 57 | 309 | 4.3 | 5.2 | 0.00 | 0.00 | 0.00 | 84 | 1020.2 |
| 20260506031333 | 57 | 303 | 2.6 | 2.6 | 0.00 | 0.00 | 0.00 | 84 | 1020.0 |
| 20260506030831 | 57 | 326 | 3.5 | 5.2 | 0.00 | 0.00 | 0.00 | 84 | 1020.4 |
| 20260506030329 | 57 | 309 | 4.3 | 6.1 | 0.00 | 0.00 | 0.00 | 84 | 1019.8 |
| 20260506025825 | 57 | 252 | 5.2 | 6.1 | 0.00 | 0.00 | 0.00 | 84 | 1019.9 |
| 20260506025321 | 57 | 302 | 5.2 | 6.1 | 0.00 | 0.00 | 0.00 | 83 | 1019.9 |
| 20260506024819 | 57 | 272 | 3.5 | 5.2 | 0.00 | 0.00 | 0.00 | 83 | 1020.1 |
| 20260506024315 | 57 | 308 | 4.3 | 5.2 | 0.00 | 0.00 | 0.00 | 83 | 1019.8 |
| 20260506023812 | 57 | 315 | 4.3 | 5.2 | 0.00 | 0.00 | 0.00 | 83 | 1019.8 |
| 20260506023309 | 57 | 305 | 5.2 | 7.0 | 0.00 | 0.00 | 0.00 | 83 | 1019.7 |
| 20260506022805 | 57 | 309 | 7.0 | 7.8 | 0.00 | 0.00 | 0.00 | 83 | 1019.8 |
| 20260506022305 | 57 | 323 | 2.6 | 4.3 | 0.00 | 0.00 | 0.00 | 83 | 1019.8 |
| 20260506021801 | 57 | 292 | 5.2 | 6.1 | 0.00 | 0.00 | 0.00 | 83 | 1019.7 |
| 20260506021258 | 57 | 340 | 4.3 | 4.3 | 0.00 | 0.00 | 0.00 | 83 | 1019.7 |
| 20260506020754 | 57 | 258 | 5.2 | 6.1 | 0.00 | 0.00 | 0.00 | 83 | 1019.5 |
| 20260506020253 | 57 | 319 | 4.3 | 5.2 | 0.00 | 0.00 | 0.00 | 83 | 1019.7 |
| 20260506015750 | 57 | 321 | 6.1 | 7.0 | 0.00 | 0.00 | 0.00 | 82 | 1019.7 |
| 20260506015247 | 57 | 299 | 6.1 | 7.0 | 0.00 | 0.00 | 0.00 | 82 | 1019.5 |
| 20260506014744 | 58 | 303 | 6.1 | 8.7 | 0.00 | 0.00 | 0.00 | 82 | 1019.3 |
| 20260506014240 | 58 | 295 | 4.3 | 6.1 | 0.00 | 0.00 | 0.00 | 82 | 1019.5 |
| 20260506013737 | 58 | 274 | 6.1 | 7.8 | 0.00 | 0.00 | 0.00 | 82 | 1019.6 |
| 20260506013235 | 58 | 337 | 4.3 | 5.2 | 0.00 | 0.00 | 0.00 | 81 | 1019.6 |
| 20260506012731 | 59 | 289 | 5.2 | 6.1 | 0.00 | 0.00 | 0.00 | 81 | 1019.3 |
| 20260506012228 | 59 | 306 | 4.3 | 7.0 | 0.00 | 0.00 | 0.00 | 81 | 1019.4 |
| 20260506011725 | 59 | 326 | 4.3 | 5.2 | 0.00 | 0.00 | 0.00 | 80 | 1019.3 |
| 20260506011221 | 59 | 305 | 4.3 | 5.2 | 0.00 | 0.00 | 0.00 | 80 | 1019.2 |
| 20260506010720 | 59 | 308 | 10.4 | 12.2 | 0.00 | 0.00 | 0.00 | 79 | 1019.2 |
| 20260506010217 | 60 | 303 | 8.7 | 11.3 | 0.00 | 0.00 | 0.00 | 77 | 1019.1 |
| 20260506005714 | 60 | 308 | 4.3 | 6.1 | 0.00 | 0.00 | 0.00 | 77 | 1019.3 |
| 20260506005211 | 61 | 307 | 8.7 | 12.2 | 0.00 | 0.00 | 0.00 | 76 | 1019.3 |
| 20260506004706 | 61 | 268 | 3.5 | 5.2 | 0.00 | 0.00 | 0.00 | 76 | 1019.1 |
| 20260506004204 | 61 | 312 | 7.8 | 9.6 | 0.00 | 0.00 | 0.00 | 74 | 1019.1 |
| 20260506003700 | 61 | 303 | 6.1 | 7.8 | 0.00 | 0.00 | 0.00 | 74 | 1019.1 |
| 20260506003157 | 61 | 322 | 6.1 | 7.8 | 0.00 | 0.00 | 0.00 | 74 | 1018.9 |
| 20260506002653 | 62 | 272 | 6.1 | 11.3 | 0.00 | 0.00 | 0.00 | 74 | 1019.1 |
| 20260506002149 | 62 | 298 | 7.0 | 8.7 | 0.00 | 0.00 | 0.00 | 73 | 1018.8 |
| 20260506001644 | 63 | 311 | 5.2 | 7.0 | 0.00 | 0.00 | 0.00 | 73 | 1018.9 |
| 20260506001142 | 64 | 285 | 7.0 | 9.6 | 0.00 | 0.00 | 0.00 | 72 | 1018.8 |
| 20260506000639 | 63 | 278 | 6.1 | 7.0 | 0.00 | 0.00 | 0.00 | 73 | 1018.7 |
| 20260506000136 | 64 | 269 | 8.7 | 9.6 | 0.00 | 0.00 | 0.00 | 71 | 1019.0 |
| 20260505235634 | 63 | 307 | 7.8 | 8.7 | 0.00 | 0.00 | 0.00 | 73 | 1018.9 |
| 20260505235131 | 64 | 241 | 7.8 | 12.2 | 0.00 | 0.00 | 0.00 | 72 | 1018.8 |
| 20260505234628 | 64 | 274 | 6.1 | 8.7 | 0.00 | 0.00 | 0.00 | 71 | 1019.0 |
| 20260505234125 | 65 | 241 | 10.4 | 12.2 | 0.00 | 0.00 | 0.00 | 69 | 1018.8 |
| 20260505233622 | 65 | 262 | 7.8 | 11.3 | 0.00 | 0.00 | 0.00 | 71 | 1018.7 |
| 20260505233120 | 65 | 263 | 9.6 | 11.3 | 0.00 | 0.00 | 0.00 | 70 | 1018.8 |
| 20260505232617 | 64 | 315 | 7.0 | 11.3 | 0.00 | 0.00 | 0.00 | 71 | 1018.8 |
| 20260505232115 | 65 | 280 | 6.1 | 7.8 | 0.00 | 0.00 | 0.00 | 70 | 1018.9 |
| 20260505231611 | 65 | 290 | 9.6 | 13.0 | 0.00 | 0.00 | 0.00 | 69 | 1018.8 |
| 20260505231110 | 66 | 335 | 5.2 | 6.1 | 0.00 | 0.00 | 0.00 | 70 | 1018.8 |
| 20260505230608 | 65 | 264 | 6.1 | 8.7 | 0.00 | 0.00 | 0.00 | 71 | 1018.5 |
| 20260505225600 | 65 | 277 | 10.4 | 12.2 | 0.00 | 0.00 | 0.00 | 69 | 1018.7 |
| 20260505225056 | 65 | 256 | 9.6 | 11.3 | 0.00 | 0.00 | 0.00 | 71 | 1018.7 |
| 20260505224553 | 65 | 267 | 13.9 | 14.8 | 0.00 | 0.00 | 0.00 | 71 | 1018.8 |
| 20260505224051 | 66 | 336 | 8.7 | 12.2 | 0.00 | 0.00 | 0.00 | 70 | 1018.9 |
| 20260505223548 | 65 | 296 | 8.7 | 11.3 | 0.00 | 0.00 | 0.00 | 72 | 1018.8 |
| 20260505223044 | 66 | 278 | 7.8 | 9.6 | 0.00 | 0.00 | 0.00 | 69 | 1018.9 |
| 20260505222540 | 66 | 282 | 10.4 | 11.3 | 0.00 | 0.00 | 0.00 | 69 | 1019.0 |
| 20260505222037 | 66 | 274 | 6.1 | 7.0 | 0.00 | 0.00 | 0.00 | 70 | 1019.0 |
| 20260505221534 | 65 | 269 | 7.0 | 7.8 | 0.00 | 0.00 | 0.00 | 72 | 1018.9 |
| 20260505221030 | 67 | 246 | 7.8 | 8.7 | 0.00 | 0.00 | 0.00 | 69 | 1019.1 |
| 20260505220528 | 67 | 267 | 7.8 | 9.6 | 0.00 | 0.00 | 0.00 | 69 | 1018.7 |
| 20260505220025 | 67 | 265 | 9.6 | 9.6 | 0.00 | 0.00 | 0.00 | 68 | 1018.9 |
| 20260505215523 | 66 | 343 | 4.3 | 6.1 | 0.00 | 0.00 | 0.00 | 69 | 1019.1 |
| 20260505215021 | 66 | 318 | 7.0 | 8.7 | 0.00 | 0.00 | 0.00 | 69 | 1018.9 |
| 20260505214519 | 67 | 256 | 5.2 | 7.0 | 0.00 | 0.00 | 0.00 | 70 | 1018.8 |
| 20260505214015 | 66 | 337 | 8.7 | 11.3 | 0.00 | 0.00 | 0.00 | 71 | 1018.9 |
| 20260505213513 | 66 | 262 | 8.7 | 9.6 | 0.00 | 0.00 | 0.00 | 71 | 1019.2 |
| 20260505213009 | 65 | 250 | 4.3 | 7.8 | 0.00 | 0.00 | 0.00 | 72 | 1019.0 |
| 20260505212506 | 65 | 310 | 5.2 | 6.1 | 0.00 | 0.00 | 0.00 | 71 | 1019.1 |
| 20260505212003 | 65 | 244 | 7.0 | 7.0 | 0.00 | 0.00 | 0.00 | 72 | 1019.0 |
| 20260505211500 | 66 | 272 | 6.1 | 7.0 | 0.00 | 0.00 | 0.00 | 69 | 1019.1 |
| 20260505210956 | 66 | 331 | 2.6 | 2.6 | 0.00 | 0.00 | 0.00 | 71 | 1019.0 |
| 20260505210453 | 65 | 262 | 4.3 | 5.2 | 0.00 | 0.00 | 0.00 | 68 | 1019.0 |
| 20260505205950 | 66 | 315 | 3.5 | 4.3 | 0.00 | 0.00 | 0.00 | 69 | 1019.1 |
| 20260505205449 | 65 | 3 | 2.6 | 2.6 | 0.00 | 0.00 | 0.00 | 68 | 1019.1 |
| 20260505204945 | 64 | 27 | 0.9 | 0.9 | 0.00 | 0.00 | 0.00 | 69 | 1019.2 |
| 20260505204443 | 64 | 292 | 1.7 | 1.7 | 0.00 | 0.00 | 0.00 | 72 | 1018.9 |
| 20260505203940 | 64 | 262 | 3.5 | 4.3 | 0.00 | 0.00 | 0.00 | 73 | 1019.2 |
| 20260505203437 | 63 | 276 | 1.7 | 2.6 | 0.00 | 0.00 | 0.00 | 72 | 1019.4 |
| 20260505202933 | 63 | 312 | 0.9 | 1.7 | 0.00 | 0.00 | 0.00 | 71 | 1019.4 |
| 20260505202429 | 64 | 289 | 3.5 | 4.3 | 0.00 | 0.00 | 0.00 | 71 | 1019.3 |
| 20260505201926 | 63 | 1 | 3.5 | 4.3 | 0.00 | 0.00 | 0.00 | 70 | 1019.3 |
| 20260505201423 | 62 | 264 | 4.3 | 5.2 | 0.00 | 0.00 | 0.00 | 73 | 1019.4 |
| 20260505200921 | 62 | 236 | 2.6 | 2.6 | 0.00 | 0.00 | 0.00 | 75 | 1019.6 |
| 20260505200418 | 62 | 276 | 4.3 | 6.1 | 0.00 | 0.00 | 0.00 | 74 | 1019.4 |
| 20260505195913 | 63 | 251 | 5.2 | 6.1 | 0.00 | 0.00 | 0.00 | 73 | 1019.5 |
| 20260505195411 | 63 | 295 | 1.7 | 1.7 | 0.00 | 0.00 | 0.00 | 73 | 1019.5 |
| 20260505194908 | 61 | 359 | 1.7 | 1.7 | 0.00 | 0.00 | 0.00 | 75 | 1019.4 |
| 20260505194406 | 61 | 324 | 1.7 | 1.7 | 0.00 | 0.00 | 0.00 | 77 | 1019.4 |
| 20260505193905 | 61 | 274 | 3.5 | 4.3 | 0.00 | 0.00 | 0.00 | 75 | 1019.4 |
| 20260505193404 | 61 | 302 | 0.0 | 0.0 | 0.00 | 0.00 | 0.00 | 76 | 1019.8 |
| 20260505192901 | 62 | 314 | 3.5 | 4.3 | 0.00 | 0.00 | 0.00 | 77 | 1019.6 |
| 20260505192359 | 61 | 294 | 0.9 | 1.7 | 0.00 | 0.00 | 0.00 | 77 | 1019.4 |
| 20260505191856 | 61 | 286 | 3.5 | 4.3 | 0.00 | 0.00 | 0.00 | 77 | 1019.6 |
| 20260505191355 | 61 | 326 | 2.6 | 2.6 | 0.00 | 0.00 | 0.00 | 78 | 1019.7 |
| 20260505190851 | 60 | 302 | 1.7 | 2.6 | 0.00 | 0.00 | 0.00 | 78 | 1019.5 |
| 20260505190347 | 60 | 309 | 2.6 | 2.6 | 0.00 | 0.00 | 0.00 | 79 | 1019.6 |
| 20260505185842 | 59 | 305 | 2.6 | 4.3 | 0.00 | 0.00 | 0.00 | 80 | 1019.4 |
| 20260505185339 | 60 | 316 | 2.6 | 4.3 | 0.00 | 0.00 | 0.00 | 79 | 1019.6 |
| 20260505184835 | 59 | 294 | 5.2 | 6.1 | 0.00 | 0.00 | 0.00 | 79 | 1019.4 |
| 20260505184332 | 59 | 290 | 2.6 | 4.3 | 0.00 | 0.00 | 0.00 | 80 | 1019.5 |
| 20260505183829 | 59 | 274 | 2.6 | 2.6 | 0.00 | 0.00 | 0.00 | 81 | 1019.5 |
| 20260505175713 | 59 | 256 | 6.1 | 7.8 | 0.00 | 0.00 | 0.00 | 80 | 1019.3 |
| 20260505175209 | 59 | 256 | 6.1 | 7.8 | 0.00 | 0.00 | 0.00 | 80 | 1019.3 |
| 20260505174706 | 58 | 303 | 4.3 | 6.1 | 0.00 | 0.00 | 0.00 | 80 | 1019.1 |
| 20260505174203 | 58 | 282 | 6.1 | 8.7 | 0.00 | 0.00 | 0.00 | 82 | 1019.3 |
| 20260505173659 | 58 | 255 | 4.3 | 5.2 | 0.00 | 0.00 | 0.00 | 82 | 1019.3 |
| 20260505173155 | 58 | 279 | 3.5 | 5.2 | 0.00 | 0.00 | 0.00 | 81 | 1019.0 |
| 20260505172653 | 58 | 256 | 5.2 | 6.1 | 0.00 | 0.00 | 0.00 | 81 | 1019.2 |
| 20260505172150 | 58 | 271 | 4.3 | 6.1 | 0.00 | 0.00 | 0.00 | 80 | 1019.0 |
| 20260505171649 | 58 | 247 | 4.3 | 4.3 | 0.00 | 0.00 | 0.00 | 81 | 1019.2 |
| 20260505171147 | 57 | 276 | 5.2 | 5.2 | 0.00 | 0.00 | 0.00 | 83 | 1019.3 |
| 20260505170644 | 57 | 253 | 5.2 | 6.1 | 0.00 | 0.00 | 0.00 | 83 | 1019.1 |
| 20260505170140 | 57 | 280 | 4.3 | 6.1 | 0.00 | 0.00 | 0.00 | 84 | 1019.3 |
| 20260505165635 | 57 | 285 | 6.1 | 7.0 | 0.00 | 0.00 | 0.00 | 84 | 1019.2 |
| 20260505165131 | 57 | 265 | 4.3 | 5.2 | 0.00 | 0.00 | 0.00 | 84 | 1019.2 |
| 20260505164626 | 57 | 318 | 1.7 | 1.7 | 0.00 | 0.00 | 0.00 | 85 | 1019.1 |
| 20260505164124 | 57 | 271 | 3.5 | 4.3 | 0.00 | 0.00 | 0.00 | 85 | 1019.0 |
| 20260505163623 | 57 | 256 | 4.3 | 5.2 | 0.00 | 0.00 | 0.00 | 85 | 1019.1 |
| 20260505163120 | 57 | 305 | 2.6 | 2.6 | 0.00 | 0.00 | 0.00 | 85 | 1019.2 |
| 20260505162617 | 57 | 312 | 4.3 | 4.3 | 0.00 | 0.00 | 0.00 | 84 | 1019.0 |
| 20260505162115 | 57 | 249 | 4.3 | 5.2 | 0.00 | 0.00 | 0.00 | 85 | 1018.9 |
| 20260505161612 | 57 | 273 | 4.3 | 5.2 | 0.00 | 0.00 | 0.00 | 86 | 1018.9 |
| 20260505161109 | 56 | 266 | 4.3 | 5.2 | 0.00 | 0.00 | 0.00 | 87 | 1019.1 |
| 20260505160607 | 56 | 281 | 6.1 | 7.0 | 0.00 | 0.00 | 0.00 | 86 | 1018.9 |
| 20260505160104 | 56 | 270 | 4.3 | 4.3 | 0.00 | 0.00 | 0.00 | 86 | 1018.9 |
| 20260505153044 | 55 | 289 | 4.3 | 7.0 | 0.00 | 0.00 | 0.00 | 88 | 1018.6 |
| 20260505152540 | 55 | 283 | 3.5 | 4.3 | 0.00 | 0.00 | 0.00 | 89 | 1018.9 |
| 20260505152036 | 55 | 275 | 4.3 | 6.1 | 0.00 | 0.00 | 0.00 | 89 | 1019.0 |
| 20260505151531 | 55 | 291 | 3.5 | 4.3 | 0.00 | 0.00 | 0.00 | 89 | 1019.0 |
| 20260505151029 | 55 | 277 | 4.3 | 5.2 | 0.00 | 0.00 | 0.00 | 90 | 1018.9 |
| 20260505150525 | 55 | 269 | 4.3 | 5.2 | 0.00 | 0.00 | 0.00 | 90 | 1018.8 |
| 20260505140450 | 53 | 317 | 1.7 | 1.7 | 0.00 | 0.00 | 0.00 | 93 | 1018.4 |
| 20260505124903 | 53 | 319 | 0.9 | 0.9 | 0.00 | 0.00 | 0.00 | 93 | 1018.2 |
| 20260505124401 | 53 | 323 | 0.9 | 0.9 | 0.00 | 0.00 | 0.00 | 93 | 1018.2 |
| 20260505123856 | 53 | 357 | 0.9 | 0.9 | 0.00 | 0.00 | 0.00 | 93 | 1018.2 |
| 20260505123353 | 53 | 348 | 0.0 | 0.0 | 0.00 | 0.00 | 0.00 | 93 | 1018.2 |
| 20260505122849 | 53 | 312 | 1.7 | 1.7 | 0.00 | 0.00 | 0.00 | 93 | 1018.0 |
| 20260505122347 | 53 | 317 | 0.9 | 0.9 | 0.00 | 0.00 | 0.00 | 93 | 1018.2 |
| 20260505121843 | 53 | 3 | 0.0 | 0.0 | 0.00 | 0.00 | 0.00 | 93 | 1018.1 |
| 20260505121340 | 53 | 357 | 0.9 | 0.9 | 0.00 | 0.00 | 0.00 | 93 | 1018.2 |
| 20260505120836 | 53 | 4 | 0.9 | 0.9 | 0.00 | 0.00 | 0.00 | 93 | 1017.8 |
| 20260505120332 | 53 | 325 | 0.9 | 0.9 | 0.00 | 0.00 | 0.00 | 93 | 1018.2 |
| 20260505115831 | 53 | 323 | 1.7 | 1.7 | 0.00 | 0.00 | 0.00 | 93 | 1018.1 |
| 20260505115328 | 53 | 325 | 0.9 | 0.9 | 0.00 | 0.00 | 0.00 | 93 | 1018.1 |
| 20260505114826 | 53 | 333 | 0.0 | 0.0 | 0.00 | 0.00 | 0.00 | 93 | 1018.0 |